Regional Weather Roundup
Issued by NWS Newport/Morehead, NC

Current Version | Previous Version | Graphics & Text | Print | Product List | Glossary On
Versions: 1 2 3 4 5 6 7 8 9 10 11 12 13 14 15 16 17 18 19 20 21 22 23 24 25 26 27 28 29 30 31 32 33 34 35 36 37 38 39 40 41 42 43 44 45 46 47 48 49 50
000 ASUS42 KMHX 240813 RWRMHX WEATHER ROUNDUP FOR EASTERN NORTH CAROLINA NATIONAL WEATHER SERVICE NEWPORT/MOREHEAD CITY NC 400 AM EDT FRI MAR 24 2017 NOTE: "FAIR" INDICATES FEW OR NO CLOUDS BELOW 12,000 FEET WITH NO SIGNIFICANT WEATHER AND/OR OBSTRUCTIONS TO VISIBILITY NCZ015>017-031-032-045>047-102-103-240900- NORTH COAST CITY SKY/WX TMP DP RH WIND PRES REMARKS EDENTON NOT AVBL ELIZABETH CITY CLEAR 32 28 85 SE3 30.55F KITTY HAWK NOT AVBL MANTEO CLEAR 34 30 86 E5 30.55F $$ NCZ045>047-081-094-103-104-240900- CENTRAL COAST CITY SKY/WX TMP DP RH WIND PRES REMARKS FRISCO CLEAR 44 37 76 NE7 30.54F $$ NCZ095-097-098-100-101-240900- SOUTHERN COAST CITY SKY/WX TMP DP RH WIND PRES REMARKS BEAUFORT CLEAR 41 34 76 NE5 30.53F CEDAR ISLAND NOT AVBL JACKSONVILLE CLEAR 38 34 85 N3 30.53S PINEY ISLAND SUNNY N/A N/A N/A NE9 30.53F WILMINGTON CLEAR 37 34 89 NE6 30.52R $$ NCZ011>013-027>030-043-044-078>080-089-090>093-098-240900- COASTAL PLAIN CITY SKY/WX TMP DP RH WIND PRES REMARKS AHOSKIE NOT AVBL CLINTON CLEAR 37 32 83 CALM 30.54F ELIZABETHTOWN CLEAR 37 33 84 CALM 30.53S GOLDSBORO CLEAR 34 34 99 CALM 30.53F GREENVILLE CLEAR 32 30 93 CALM 30.54F HAVELOCK NOT AVBL KENANSVILLE CLEAR 32 30 93 CALM 30.54F KINSTON CLEAR 33 31 90 CALM 30.55F NEW BERN CLEAR 37 33 85 E6 30.55F RICHLANDS CLEAR 32 29 88 N3 30.54S ROCKY MOUNT CLEAR 33 31 92 CALM 30.55F WASHINGTON CLEAR 30 28 90 CALM 30.55F WHITEVILLE CLEAR 40 34 81 NE3 30.51S $$ AMZ130-135-150-152-154-156-158-170-250-252-270-ANZ085-086-088-633-658-670-240900- MARINE OBSERVATIONS STATION/POSITION TIME TEMP WIND PRES WAVE SWELL AIR SEA DIR/SP/G HT/PER HT/PER (UTC) (F) (DEG/KT/KT) (MB) (FT/S) (FT/S) CHESAPEAKE LIGHT NOT AVBL 64 E VA BEACH 0750 45 49 120/ 4/ 6 1034.8 4/ 9 3/ 9 DUCK 0748 42 47 90/ 8/ 10 1034.1 2 E DUCK 0800 47 N/A 3/ 7 OREGON INLET 0742 43 49 40/ 6/ 7 1034.9 13E OREGON INLT NOT AVBL HATTERAS CG 0748 45 51 40/ 7/ 9 1033.7 DIAMOND BUOY 0750 56 74 20/ 6/ 12 1033.5 7/10 7/10 CAPE LOOKOUT 0800 46 10/ 13/ 15 1033.2 BEAUFORT LAB 0748 42 50 20/ 7/ 9 1033.0 30 SE NEW RVR IN NOT AVBL 30 SE NEW RVR IN 0743 69 N/A 4/11 2/11 27 SE WRIGHTSVLE 0708 59 62 90/ 10/ 14 1031.7 5 SE WRIGHTSVLE 0708 52 56 60/ 14/ 21 1032.8 225 S CAPE HAT 0750 62 73 60/ 16/ 19 1031.2 6/10 3/10 41 SE CHARLESTON 0750 66 71 110/ 14/ 17 1030.1 6/ 7 3/ 7 $$

USA.gov is the U.S. government's official web portal to all federal, state and local government web resources and services.